Location: American Medical Response
(33.3472°N, 96.5511°W)
Time: 03:55:53
(UTC+00:00)

SJ 16-02 - Pass Details

Date: 07 July 2022
Orbit: 604 x 615 km, 75.0° (Epoch: 07 August)

Event Time Altitude Azimuth Distance (km) Brightness Sun altitude
Rises 05:50:16 0° 347° (NNW) 2,889 5.9 -33.2°
Reaches altitude 10° 05:52:32 10° 350° (N) 1,979 4.8 -33.3°
Enters shadow 05:54:25 25° 355° (N) 1,262 3.5 -33.4°
